Location: Lima
(44.6384°N, 112.5920°W)
Time: 01:10:10
(UTC+00:00)

ZACube-1 - Visible Passes

Search period start: 24 April 2024 00:00
Search period end: 04 May 2024 00:00
Orbit: 567 x 638 km, 97.7° (Epoch: 23 April)

Date Brightness Start Highest point End Pass type
(mag) Time Alt. Az. Time Alt. Az. Time Alt. Az.
24 Apr ? 09:08:58 10° ENE 09:10:11 11° E 09:11:23 10° ESE visible
24 Apr ? 10:42:03 10° N 10:46:27 77° WNW 10:48:53 27° SSW visible
25 Apr ? 09:19:41 10° NE 09:22:12 15° E 09:24:10 12° ESE visible
25 Apr ? 10:53:58 10° N 10:58:18 58° WNW 11:00:58 22° SW visible
26 Apr ? 09:30:57 10° NE 09:34:10 19° E 09:36:15 14° SE visible
26 Apr ? 11:05:55 10° N 11:10:07 44° WNW 11:13:03 18° SW visible
27 Apr ? 09:42:24 10° NE 09:46:05 25° E 09:48:18 17° SE visible
27 Apr ? 11:17:54 10° N 11:21:52 33° WNW 11:25:07 14° SW visible
28 Apr ? 09:53:57 10° NNE 09:57:58 33° E 10:00:20 20° SSE visible
28 Apr ? 11:29:56 10° N 11:33:35 26° WNW 11:37:08 11° WSW visible
29 Apr ? 10:05:33 10° NNE 10:09:48 44° E 10:12:20 22° SSE visible
29 Apr ? 11:42:00 10° NNW 11:45:16 21° WNW 11:48:31 10° WSW visible
30 Apr ? 10:17:12 10° NNE 10:21:36 58° E 10:24:18 22° S visible
01 May ? 10:28:53 10° NNE 10:33:21 78° ESE 10:36:14 21° S visible
02 May ? 09:07:43 10° ENE 09:08:44 11° E 09:09:47 10° ESE visible
02 May ? 10:40:36 10° N 10:45:02 80° WNW 10:48:09 19° SSW visible
03 May ? 09:18:09 10° ENE 09:20:34 14° E 09:22:59 10° ESE visible
03 May ? 10:52:19 10° N 10:56:42 60° WNW 11:00:03 17° SSW visible
